Date,TemperatureHighF,TemperatureAvgF,TemperatureLowF,DewpointHighF,DewpointAvgF,DewpointLowF,HumidityHigh,HumidityAvg,HumidityLow,PressureMaxIn,PressureMinIn,WindSpeedMaxMPH,WindSpeedAvgMPH,GustSpeedMaxMPH,PrecipitationSumIn
2013-1-1,37.4,31.6,20.4,26.2,18.0,6.0,72,57,45,29.79,29.58,12,7,27,0.00
2013-1-2,30.0,20.3,12.5,14.6,8.3,2.2,74,59,50,29.96,29.74,10,5,20,0.00
2013-1-3,25.7,14.7,4.5,10.2,-0.3,-5.7,66,52,28,30.02,29.87,8,4,16,0.00
2013-1-4,38.2,29.2,16.5,23.8,19.2,9.3,81,66,51,29.86,29.66,13,5,27,0.60
2013-1-5,41.8,32.6,23.5,25.4,20.9,17.7,83,63,43,30.12,29.71,10,4,23,0.00
2013-1-6,43.2,33.2,25.2,29.6,25.8,20.3,89,74,54,30.09,29.79,10,3,20,0.00
2013-1-7,38.8,32.0,26.0,30.0,25.0,17.3,93,77,42,30.27,29.82,8,3,16,0.00
2013-1-8,46.5,36.1,25.4,29.6,27.6,23.5,94,72,50,30.24,30.11,12,5,26,0.00
2013-1-9,44.3,36.7,26.0,36.4,29.9,24.4,94,77,59,30.27,29.86,10,4,21,0.00
2013-1-10,46.7,41.6,34.0,29.7,24.1,22.1,65,49,39,30.39,29.90,13,7,29,0.00
2013-1-11,40.4,34.6,26.2,35.6,28.5,21.7,94,78,64,30.38,30.09,4,2,9,0.60
2013-1-12,44.2,41.0,36.9,43.1,40.3,35.6,99,97,94,30.10,29.98,2,1,6,0.00
2013-1-13,52.3,46.8,42.1,50.0,46.1,42.0,100,97,91,30.00,29.83,8,3,15,0.00
2013-1-14,61.4,52.2,42.3,53.4,43.7,27.5,97,74,39,30.10,29.71,10,6,20,0.00
2013-1-15,41.9,38.2,33.9,27.8,25.6,23.3,70,60,54,30.16,30.06,6,3,13,0.00
2013-1-16,36.2,32.9,30.1,32.6,29.8,22.8,98,89,58,30.09,29.68,5,1,10,0.30
2013-1-17,42.7,35.2,29.9,33.0,27.5,13.4,97,75,49,29.94,29.70,10,4,19,2.20
2013-1-18,29.7,22.5,17.8,15.2,1.0,-5.0,54,39,27,30.31,29.91,10,6,27,0.00
2013-1-19,48.9,37.4,21.5,32.6,23.2,6.0,75,57,39,30.25,29.75,14,8,28,0.00
2013-1-20,54.0,42.0,28.8,34.2,25.8,9.2,75,53,32,29.78,29.39,17,9,34,0.00
2013-1-21,28.4,24.7,20.9,21.1,9.8,3.8,90,54,38,29.96,29.66,9,5,21,0.00
2013-1-22,25.1,20.1,13.1,20.6,7.8,-2.4,92,61,34,29.96,29.62,11,6,24,0.00
2013-1-23,16.2,11.0,6.7,0.0,-7.6,-11.7,61,42,29,30.02,29.91,11,7,27,0.00
2013-1-24,20.4,10.8,2.4,-7.0,-9.7,-12.1,53,39,26,30.09,29.91,11,7,27,0.00
2013-1-25,23.8,15.8,7.8,12.6,-6.2,-12.1,86,38,22,30.16,29.93,9,5,26,0.00
2013-1-26,24.5,17.0,10.8,13.0,3.2,-6.7,89,58,30,30.10,29.86,9,5,20,0.00
2013-1-27,30.4,20.5,11.6,3.6,0.6,-4.8,62,43,26,30.32,30.10,10,6,21,0.00
2013-1-28,31.0,25.0,18.0,27.0,13.5,0.6,95,64,32,30.31,29.88,4,2,12,0.00
2013-1-29,33.9,30.4,25.7,32.6,28.5,24.2,97,92,87,30.05,29.87,4,0,10,0.80
2013-1-30,61.2,49.9,33.3,57.1,48.2,32.7,98,94,85,30.02,29.33,13,7,30,0.80
2013-1-31,60.4,48.0,31.6,58.0,37.2,15.0,93,68,36,29.44,28.83,17,12,42,3.40
2013-2-1,32.6,28.4,22.0,17.3,8.8,3.1,58,43,31,29.93,29.44,12,8,26,0.00
2013-2-2,30.3,24.2,17.2,12.4,6.6,2.2,56,46,38,30.09,29.90,8,6,18,0.00
2013-2-3,26.4,24.1,21.9,22.2,19.7,11.8,88,83,54,29.91,29.59,8,4,14,0.00
2013-2-4,30.2,24.2,19.9,21.1,11.8,5.4,90,60,38,29.80,29.58,13,7,28,0.00
2013-2-5,27.8,24.3,20.6,23.5,13.9,8.7,92,65,52,29.88,29.79,5,2,10,0.00
2013-2-6,38.8,30.1,25.0,26.9,19.5,4.6,93,67,39,30.14,29.78,10,4,21,0.60
2013-2-7,28.8,24.4,18.7,16.1,3.9,0.4,65,41,30,30.38,30.15,7,4,15,0.00
2013-2-8,32.1,29.1,18.0,31.2,26.0,16.3,99,88,66,30.35,29.44,21,10,39,0.00
2013-2-9,21.3,18.4,15.1,17.9,12.6,3.0,94,79,57,30.05,29.41,14,10,30,0.00
2013-2-10,40.2,23.5,7.7,14.1,4.6,-0.1,77,47,21,30.24,30.06,9,4,19,1.30
2013-2-11,45.0,34.5,18.0,44.2,30.3,11.4,99,85,60,30.22,29.45,7,2,15,1.20
2013-2-12,45.1,39.2,31.0,41.1,29.5,24.9,96,68,51,29.73,29.46,13,7,29,0.00
2013-2-13,42.5,34.4,25.7,28.5,24.8,21.4,87,68,49,29.72,29.54,6,2,14,0.00
2013-2-14,45.3,36.6,31.3,29.3,23.0,19.9,83,58,38,29.85,29.57,6,4,13,0.00
2013-2-15,50.3,38.5,29.8,35.8,31.7,23.6,95,77,54,29.86,29.76,10,5,22,0.00
2013-2-16,37.6,34.2,30.6,33.2,28.2,17.7,97,79,54,29.81,29.57,8,4,16,0.30
2013-2-17,30.1,21.5,17.0,20.8,11.2,0.0,89,66,41,29.56,29.25,15,11,37,0.00
2013-2-18,32.0,22.5,14.4,2.7,0.8,-1.5,52,39,24,30.01,29.53,14,10,31,0.00
2013-2-19,47.3,36.8,23.0,42.7,24.7,2.2,97,63,39,30.02,29.44,9,4,17,2.40
2013-2-20,42.4,32.5,26.2,41.0,20.2,9.6,95,62,40,29.64,29.40,13,8,30,0.00
2013-2-21,32.7,27.6,24.3,15.7,13.1,10.4,65,54,42,30.02,29.63,12,8,24,0.00
2013-2-22,37.7,31.0,23.1,25.5,21.6,15.7,79,68,53,30.23,30.04,8,4,18,0.00
2013-2-23,39.2,34.2,28.3,34.5,29.1,24.1,97,81,70,30.19,29.78,6,3,12,2.20
2013-2-24,38.5,34.6,30.3,37.7,34.0,30.2,99,97,94,29.77,29.54,10,5,20,3.60
2013-2-25,41.4,34.8,29.5,32.8,30.4,28.3,99,84,63,30.10,29.75,5,2,11,0.50
2013-2-26,42.7,35.6,27.5,35.0,30.3,27.1,98,82,61,30.18,30.01,9,3,15,0.00
2013-2-27,41.1,39.7,37.9,40.9,38.5,32.9,99,95,82,30.01,29.41,14,9,39,9.40
2013-2-28,46.4,37.8,33.5,39.4,35.4,32.7,99,91,72,29.50,29.38,4,2,11,0.30
2013-3-1,40.7,38.0,34.6,35.8,30.6,28.0,94,75,63,29.53,29.38,7,4,15,0.00
2013-3-2,44.1,37.5,32.3,29.9,27.5,25.2,78,67,56,29.52,29.47,7,4,15,0.00
2013-3-3,41.6,35.3,32.5,31.7,28.4,25.1,92,76,65,29.50,29.41,6,4,13,0.00
2013-3-4,39.7,34.2,29.8,28.6,24.4,21.4,83,67,51,29.59,29.43,11,8,24,0.00
2013-3-5,43.7,36.3,31.4,34.1,28.2,22.7,93,72,57,29.93,29.59,9,5,20,0.00
2013-3-6,39.5,37.4,34.8,35.9,33.4,30.3,93,85,70,29.96,29.90,17,12,35,1.20
2013-3-7,36.6,32.0,30.2,31.9,30.5,29.2,98,94,76,29.91,29.85,15,10,31,1.40
2013-3-8,41.9,32.8,29.0,31.2,28.2,22.4,97,85,50,29.99,29.80,16,8,30,1.00
2013-3-9,42.2,35.7,28.2,31.0,25.8,20.9,95,68,54,30.20,29.99,12,6,20,0.00
2013-3-10,40.2,35.2,29.1,32.8,30.4,27.3,94,83,70,30.26,30.18,7,4,14,0.00
2013-3-11,52.2,41.8,34.7,40.5,36.5,32.1,94,82,62,30.18,30.01,8,5,15,0.00
2013-3-12,56.0,49.4,40.4,53.4,47.5,39.0,98,93,83,30.03,29.58,8,4,21,3.30
2013-3-13,51.7,44.6,34.2,51.0,33.4,19.8,98,68,32,29.64,29.54,9,6,20,0.00
2013-3-14,35.8,31.4,22.7,23.9,14.5,5.6,66,49,37,29.69,29.55,11,7,24,0.00
2013-3-15,40.6,29.8,20.0,26.8,11.2,-99.9,72,48,26,29.73,29.48,12,-4,25,0.00
2013-3-16,39.2,33.5,28.4,26.9,15.5,7.6,75,49,26,29.72,29.52,8,4,18,0.00
2013-3-17,37.7,30.6,23.4,19.9,10.8,3.5,74,45,25,30.17,29.73,11,5,22,0.00
2013-3-18,37.2,28.0,18.7,26.4,9.8,-1.9,93,47,29,30.31,30.12,8,4,16,0.00
2013-3-19,36.6,32.3,28.0,36.2,31.7,26.5,99,97,93,30.11,29.45,14,8,30,2.70
2013-3-20,39.1,30.9,24.2,26.3,21.0,17.7,94,69,42,29.67,29.55,12,4,30,0.00
2013-3-21,36.5,30.1,23.1,28.8,22.7,16.9,94,75,48,29.68,29.47,5,2,11,0.00
2013-3-22,40.8,33.7,27.8,28.2,20.0,15.2,93,58,38,29.60,29.47,10,6,21,0.00
2013-3-23,43.5,35.7,28.6,23.8,19.5,16.7,73,53,35,29.64,29.48,12,8,30,0.00
2013-3-24,47.0,38.5,31.1,29.9,23.2,19.3,75,54,39,29.67,29.58,8,5,23,0.00
2013-3-25,42.3,37.9,32.3,35.3,30.8,26.0,81,75,68,29.63,29.37,14,7,28,0.00
2013-3-26,49.8,40.6,33.1,31.9,25.2,19.0,92,57,31,29.64,29.39,9,5,20,0.30
2013-3-27,53.1,42.9,29.8,29.9,23.8,20.5,71,48,30,29.72,29.59,10,5,19,0.00
2013-3-28,45.8,41.5,36.8,34.6,32.8,29.0,89,72,52,29.88,29.73,7,4,15,0.00
2013-3-29,57.3,46.3,34.4,35.2,31.9,28.8,84,59,38,29.91,29.82,9,4,19,0.00
2013-3-30,56.3,46.7,36.8,32.8,23.8,14.5,73,44,20,29.97,29.86,8,4,16,0.00
2013-3-31,59.8,45.7,29.0,40.1,27.0,19.8,81,51,24,29.99,29.63,10,5,25,0.00
2013-4-1,61.3,47.2,35.4,45.6,37.6,12.1,97,72,36,29.65,29.36,11,7,23,1.10
2013-4-2,40.6,34.5,29.4,18.0,12.9,8.2,53,41,29,29.80,29.65,15,9,31,0.00
2013-4-3,45.4,36.8,30.3,18.9,12.7,9.1,60,38,23,30.01,29.79,14,10,27,0.00
2013-4-4,56.0,41.5,29.5,25.7,16.5,12.0,57,38,17,30.15,29.92,10,6,21,0.00
2013-4-5,60.6,47.0,37.5,31.8,26.6,19.5,71,48,23,29.93,29.48,10,7,22,0.00
2013-4-6,46.7,37.9,31.6,26.4,10.4,3.0,59,34,17,30.20,29.75,12,6,24,0.00
2013-4-7,52.3,41.7,28.0,40.6,28.0,12.8,81,59,35,30.20,29.88,14,6,32,0.00
2013-4-8,66.3,52.7,44.0,44.3,40.6,33.2,92,66,32,29.96,29.82,8,5,14,0.00
2013-4-9,72.9,55.4,46.1,54.0,44.1,38.8,92,68,38,29.95,29.71,11,5,25,0.00
2013-4-10,61.2,51.1,45.7,48.0,44.7,41.9,91,79,59,29.88,29.73,9,3,16,0.60
2013-4-11,50.3,46.1,41.9,46.1,41.9,35.5,97,85,68,29.99,29.69,9,3,18,1.10
2013-4-12,42.0,39.0,36.9,39.0,36.0,31.9,96,89,72,30.02,29.63,12,8,29,3.00
2013-4-13,53.1,43.2,35.5,40.2,36.9,34.2,95,79,51,29.78,29.60,12,5,23,0.00
2013-4-14,52.1,45.6,38.2,40.4,32.7,25.3,91,62,38,30.06,29.77,10,5,21,0.00
2013-4-15,53.1,44.0,31.8,40.1,31.7,-99.9,85,64,48,30.25,30.07,9,-7,14,0.00
2013-4-16,63.2,51.5,38.1,50.1,41.9,35.4,93,71,49,30.27,29.93,12,7,27,0.00
2013-4-17,66.6,58.8,48.4,52.3,37.6,27.4,85,49,25,30.19,29.92,10,6,21,0.00
2013-4-18,65.2,52.8,39.7,43.6,35.2,26.4,88,53,32,30.28,30.02,9,5,21,0.00
2013-4-19,73.7,62.6,52.0,62.8,57.8,44.2,98,85,63,30.01,29.51,13,8,30,0.00
2013-4-20,65.0,54.3,44.9,62.3,41.5,24.3,96,65,36,30.04,29.45,12,7,27,2.80
2013-4-21,52.5,42.5,34.3,28.2,22.3,18.3,71,45,27,30.53,30.06,10,5,21,0.00
2013-4-22,47.7,41.3,31.8,35.9,31.1,27.1,88,67,46,30.59,30.45,13,7,24,0.00
2013-4-23,42.1,41.2,39.7,41.2,38.4,31.8,97,90,71,30.45,29.97,11,8,22,0.90
2013-4-24,73.9,54.2,41.8,53.2,45.3,41.1,97,75,35,29.96,29.63,10,7,22,0.00
2013-4-25,64.7,55.1,44.5,52.3,37.2,25.8,92,56,24,30.11,29.70,10,6,24,0.60
2013-4-26,54.0,48.5,42.7,41.8,36.5,28.2,91,64,43,30.29,30.12,10,6,17,0.00
2013-4-27,62.2,50.8,36.4,44.9,37.2,32.0,97,64,36,30.29,30.14,7,3,15,0.00
2013-4-28,68.2,54.1,37.7,42.9,35.9,27.9,90,53,32,30.19,30.06,9,4,18,0.00
2013-4-29,69.7,56.8,46.8,48.1,37.9,14.7,88,54,17,30.14,30.04,8,4,19,0.00
2013-4-30,65.1,54.3,41.9,42.3,31.4,18.7,79,46,17,30.23,30.12,9,3,17,0.00
2013-5-1,65.1,53.1,38.4,38.4,32.6,-99.9,82,50,28,30.33,30.24,8,-7,14,0.00
2013-5-2,73.0,54.7,43.1,47.3,41.9,33.7,91,66,28,30.35,30.21,14,4,24,0.00
2013-5-3,54.6,48.3,42.2,44.7,41.2,39.3,89,76,64,30.37,30.24,10,6,20,0.00
2013-5-4,52.8,45.9,37.7,44.5,39.5,36.1,95,79,62,30.24,30.17,9,4,17,0.00
2013-5-5,55.6,46.8,36.8,43.3,39.7,35.4,95,77,56,30.19,30.11,9,4,17,0.00
2013-5-6,63.0,49.5,36.8,51.9,44.8,35.9,98,85,57,30.15,30.00,8,3,14,0.00
2013-5-7,76.7,62.2,44.5,60.6,51.9,43.4,97,71,50,30.04,29.93,7,3,14,0.00
2013-5-8,71.2,61.4,52.1,64.4,57.8,51.3,97,88,69,30.04,29.90,7,3,18,0.08
2013-5-9,69.1,59.1,56.5,63.1,57.9,55.4,99,95,73,29.90,29.73,6,2,11,0.59
2013-5-10,77.2,65.7,54.4,60.9,57.3,54.2,100,76,48,29.79,29.73,7,2,14,0.05
2013-5-11,71.4,63.2,58.1,62.0,58.7,54.0,95,85,69,29.77,29.54,10,5,23,0.00
2013-5-12,72.5,61.4,50.8,62.1,51.8,30.2,97,74,39,29.65,29.40,9,4,22,0.10
2013-5-13,59.2,50.3,39.8,35.2,30.6,26.2,76,47,31,29.88,29.66,8,4,22,0.00
2013-5-14,58.8,49.9,40.5,35.2,30.4,27.0,69,48,32,29.90,29.82,7,4,17,0.00
2013-5-15,66.3,53.0,38.2,52.3,40.2,31.8,90,65,34,29.91,29.54,9,4,22,0.00
2013-5-16,82.0,66.7,48.4,53.2,43.0,35.2,96,50,20,29.65,29.47,11,4,27,0.00
2013-5-17,68.4,58.9,47.9,46.1,41.5,36.8,78,53,34,30.08,29.66,8,4,21,0.00
2013-5-18,71.7,59.6,45.4,48.2,44.5,38.0,92,60,31,30.15,30.08,6,3,13,0.00
2013-5-19,70.3,56.2,47.3,54.2,50.1,45.0,96,80,51,30.19,30.08,8,3,16,0.13
2013-5-20,82.8,67.2,55.1,65.8,60.7,54.0,98,82,54,30.07,29.75,6,3,16,0.05
2013-5-21,74.7,59.9,51.2,65.7,57.2,50.3,98,91,70,29.85,29.71,11,4,20,0.16
2013-5-22,65.4,55.5,50.4,60.7,53.5,49.5,99,93,84,29.89,29.74,8,4,16,0.00
2013-5-23,76.2,65.5,53.7,69.7,62.7,53.5,100,91,74,29.78,29.67,10,4,27,0.10
2013-5-24,70.8,62.6,49.9,67.7,61.2,49.4,97,94,86,29.66,29.50,6,3,18,0.74
2013-5-25,51.8,47.7,41.6,50.6,46.7,39.5,98,96,92,29.65,29.54,7,4,19,0.54
2013-5-26,58.6,48.4,39.2,45.0,39.7,37.5,95,73,48,29.93,29.56,9,5,28,0.00
2013-5-27,71.5,57.2,40.4,44.2,39.5,33.9,92,57,25,30.02,29.91,8,4,20,0.00
2013-5-28,70.2,59.2,42.4,54.4,47.1,41.0,95,66,42,30.08,30.01,9,3,15,0.00
2013-5-29,74.1,62.9,57.9,67.0,60.0,52.7,97,90,77,30.06,29.85,5,2,12,0.71
2013-5-30,88.0,75.3,63.3,70.4,66.3,62.6,97,76,49,29.91,-26.25,8,4,20,0.00
2013-5-31,93.0,80.7,65.5,70.6,66.4,62.6,95,65,38,29.92,-26.25,7,3,17,0.00
2013-6-1,90.7,79.8,67.7,67.9,65.4,61.6,82,62,44,29.84,29.72,9,5,22,0.00
2013-6-2,87.5,76.6,67.3,70.3,66.4,63.6,89,72,49,29.76,-26.25,12,6,31,0.00
2013-6-3,77.3,68.8,63.9,68.8,64.1,43.4,95,85,47,29.69,-26.25,5,3,14,0.23
2013-6-4,71.0,62.2,51.5,47.3,44.4,40.9,68,52,39,29.94,-26.25,7,4,19,0.00
2013-6-5,75.8,63.1,49.3,51.3,46.7,43.0,88,57,37,29.98,-26.25,6,3,13,0.00
2013-6-6,74.6,64.1,54.4,56.7,50.3,43.3,82,62,41,0.00,-26.25,7,3,13,0.00
2013-6-7,58.6,55.5,53.8,57.1,54.0,49.3,98,94,81,29.94,-26.25,10,6,22,2.61
2013-6-8,78.4,63.4,53.6,64.9,58.3,53.2,99,84,61,29.85,29.44,8,5,19,0.50
2013-6-9,79.7,68.1,56.2,59.4,56.4,53.5,96,69,42,30.02,29.85,7,3,19,0.00
2013-6-10,67.9,61.1,55.3,59.1,56.9,53.7,97,86,65,30.04,29.86,7,3,14,0.65
2013-6-11,64.3,58.6,55.5,60.2,57.2,54.8,99,95,85,29.87,29.42,9,4,19,1.23
2013-6-12,69.8,62.2,56.0,60.5,55.9,52.5,99,81,58,29.66,29.40,9,3,23,0.00
2013-6-13,67.7,57.5,51.5,57.5,53.6,50.3,96,87,66,29.66,29.52,8,2,16,0.98
2013-6-14,74.0,60.0,51.9,59.6,53.7,49.0,96,81,56,29.60,29.47,9,5,22,1.00
2013-6-15,79.0,67.0,54.5,54.8,48.8,43.5,93,56,30,29.79,29.61,7,3,16,0.00
2013-6-16,76.0,66.3,52.6,62.9,54.4,46.6,87,66,46,29.80,29.58,6,4,15,0.00
2013-6-17,84.8,69.9,58.0,64.7,60.5,56.1,96,75,41,29.76,29.62,10,4,27,1.19
2013-6-18,73.0,62.8,57.8,65.4,59.6,56.7,98,90,65,29.79,29.72,8,2,19,0.98
2013-6-19,72.4,63.6,56.1,58.0,52.7,47.2,96,70,43,29.99,29.74,7,3,14,0.00
2013-6-20,78.5,66.8,51.8,56.5,52.5,48.6,96,63,38,30.09,29.99,5,3,14,0.00
2013-6-21,83.3,71.3,58.9,64.5,59.3,54.0,84,67,44,30.11,30.04,7,4,15,0.00
2013-6-22,83.1,72.4,63.3,64.5,59.2,54.9,75,64,46,30.08,29.97,9,4,20,0.00
2013-6-23,88.6,76.6,65.4,72.4,65.0,55.5,80,68,54,30.02,29.85,8,6,19,0.00
2013-6-24,91.7,80.3,70.2,73.2,70.2,66.3,93,73,49,29.89,29.72,9,5,22,0.08
2013-6-25,90.5,79.2,68.6,71.7,68.2,65.8,92,71,47,29.76,29.58,8,5,24,0.00
2013-6-26,85.0,74.3,67.7,74.5,68.6,66.0,94,83,63,29.69,29.57,7,3,17,0.05
2013-6-27,68.1,64.0,61.2,66.1,63.3,61.0,99,97,90,29.70,29.60,7,4,13,0.00
2013-6-28,81.9,70.6,61.5,74.4,68.1,61.5,100,92,71,29.61,29.33,8,5,20,0.10
2013-6-29,82.0,74.4,69.7,73.9,69.7,67.3,97,85,67,29.57,29.36,7,4,18,0.00
2013-6-30,83.8,75.4,69.4,75.5,70.4,67.5,94,85,72,29.78,29.57,8,4,18,0.13
2013-7-1,84.4,75.3,70.9,76.4,72.3,69.7,98,90,75,29.92,29.78,7,3,18,0.13
2013-7-2,82.4,72.7,61.2,75.5,69.2,59.6,97,89,75,30.04,29.91,8,4,14,0.00
2013-7-3,87.8,76.2,62.6,75.6,69.8,61.2,96,81,63,30.04,29.97,9,4,20,0.00
2013-7-4,92.3,82.2,73.1,76.3,73.6,71.1,94,76,57,30.03,29.94,9,5,20,0.00
2013-7-5,92.8,84.3,75.8,76.2,73.5,71.8,87,71,52,29.99,29.89,7,5,17,0.00
2013-7-6,90.7,82.8,75.0,76.3,72.0,66.0,88,71,52,29.92,29.82,6,4,15,0.00
2013-7-7,91.5,79.4,68.8,75.2,70.7,64.4,92,75,56,29.88,29.76,4,2,10,0.00
2013-7-8,85.2,75.0,66.4,76.1,70.6,64.4,95,86,74,29.90,29.75,8,4,15,0.05
2013-7-9,74.1,68.2,65.1,68.1,65.6,64.2,98,91,80,29.94,29.88,5,3,10,0.00
2013-7-10,85.9,74.2,65.8,76.4,70.6,64.6,99,89,68,29.92,29.64,7,4,18,0.05
2013-7-11,81.2,75.5,70.6,75.2,72.3,68.6,96,90,75,29.75,29.62,5,2,12,0.26
2013-7-12,72.5,69.6,65.5,70.3,62.0,58.3,95,77,66,30.04,29.76,10,6,21,0.00
2013-7-13,74.6,68.9,65.0,69.6,66.0,62.8,95,90,83,30.14,30.04,5,3,12,0.00
2013-7-14,91.3,78.7,70.5,75.9,71.7,68.6,99,81,49,31.58,30.04,6,2,12,0.00
2013-7-15,91.7,81.1,71.0,76.4,72.2,69.1,97,76,52,30.04,29.94,5,2,11,0.00
2013-7-16,92.5,81.4,72.1,72.3,69.0,65.7,92,67,43,30.02,29.94,6,2,14,0.00
2013-7-17,95.7,83.2,69.9,75.3,70.6,67.0,93,68,42,30.01,29.86,7,3,14,0.00
2013-7-18,91.0,82.4,76.2,75.8,72.1,67.7,85,71,51,29.86,29.79,9,4,16,0.00
2013-7-19,97.4,86.8,77.4,77.4,74.7,72.1,88,69,45,29.79,29.57,10,6,23,0.00
2013-7-20,93.9,84.4,73.9,78.7,74.3,70.2,91,73,50,29.64,29.49,9,4,23,0.00
2013-7-21,80.9,74.1,69.5,68.1,64.9,61.3,91,73,58,29.83,29.65,9,4,14,0.00
2013-7-22,79.1,71.9,67.0,71.8,67.6,65.4,96,86,69,29.84,29.72,10,4,15,0.00
2013-7-23,80.5,72.2,68.8,77.2,71.1,67.2,99,96,85,29.72,29.38,5,2,15,4.42
2013-7-24,85.6,76.9,68.2,75.4,68.2,55.8,99,76,54,29.79,29.43,7,3,17,0.00
2013-7-25,67.6,61.5,59.1,58.9,54.9,49.1,96,79,63,29.94,29.80,9,5,20,0.18
2013-7-26,70.0,64.4,59.8,67.2,62.9,58.9,97,94,85,29.90,29.76,7,3,17,0.82
2013-7-27,84.3,71.5,58.7,68.9,63.8,58.2,98,78,50,29.89,29.83,5,3,12,0.00
2013-7-28,78.8,70.4,65.9,71.4,67.6,64.5,96,90,76,29.87,29.81,7,3,13,0.00
2013-7-29,84.4,72.6,66.6,73.4,68.6,64.6,99,88,68,29.87,29.80,6,2,18,0.00
2013-7-30,82.8,72.0,61.5,67.6,60.7,55.0,98,70,42,29.95,29.86,5,2,15,0.00
2013-7-31,83.1,71.8,60.3,63.8,60.1,56.1,94,68,43,29.96,29.89,4,2,11,0.00
2013-8-1,82.7,71.8,62.4,67.7,62.7,60.4,95,74,52,29.91,29.74,7,3,17,0.00
2013-8-2,82.7,72.1,63.8,69.3,63.1,58.8,96,75,48,29.75,29.63,7,3,18,0.00
2013-8-3,79.3,71.4,65.2,65.5,62.8,60.6,90,74,54,29.72,29.62,8,4,18,0.00
2013-8-4,80.1,68.6,58.8,61.5,57.7,54.7,92,70,43,29.75,29.60,6,2,16,0.00
2013-8-5,75.8,64.2,54.4,55.2,49.1,42.2,89,61,31,29.91,29.75,7,3,17,0.00
2013-8-6,77.4,64.8,50.9,55.7,51.7,46.8,92,65,40,29.93,-26.25,7,2,13,0.00
2013-8-7,80.1,68.1,55.0,62.5,55.1,48.5,96,66,38,0.00,-26.25,6,2,15,0.00
2013-8-8,81.6,71.6,64.5,72.2,66.0,54.8,94,82,69,0.00,-26.25,8,4,20,0.24
2013-8-9,74.9,72.7,71.2,74.2,71.4,69.2,98,95,90,29.78,-26.25,8,4,17,1.70
2013-8-10,84.1,74.2,63.4,72.5,62.7,54.1,99,70,41,29.85,29.63,7,4,17,0.00
2013-8-11,79.8,67.5,54.2,60.0,55.4,51.1,95,68,43,29.92,29.84,4,2,14,0.00
2013-8-12,81.5,71.1,59.6,64.6,59.4,55.2,94,69,44,29.89,29.77,6,2,13,0.00
2013-8-13,76.2,69.0,64.8,68.3,64.4,61.6,94,85,66,29.78,29.54,4,1,10,0.00
2013-8-14,73.7,66.9,60.1,64.0,55.4,51.6,94,68,49,29.82,29.51,10,4,23,0.00
2013-8-15,76.8,65.2,52.6,55.1,52.3,49.5,93,66,40,29.97,29.82,6,2,18,0.00
2013-8-16,79.4,67.6,54.6,58.5,54.8,51.7,91,66,40,30.05,29.96,7,3,15,0.00
2013-8-17,76.7,67.7,56.7,60.2,57.1,53.2,94,70,49,30.13,30.05,7,3,14,0.00
2013-8-18,80.3,69.2,58.5,64.5,59.8,56.2,96,73,46,30.13,29.95,4,2,10,0.00
2013-8-19,81.6,71.3,59.1,64.5,60.1,56.8,92,69,45,29.95,29.79,5,3,14,0.00
2013-8-20,85.3,74.3,63.6,65.0,62.1,58.9,90,68,41,29.95,29.84,6,2,12,0.00
2013-8-21,88.1,75.1,62.0,66.6,63.6,59.7,92,70,45,29.97,29.87,6,2,13,0.00
2013-8-22,85.0,75.0,65.9,71.4,67.5,63.0,91,78,57,29.88,29.67,8,4,18,0.00
2013-8-23,77.4,71.3,61.3,69.4,60.6,50.4,95,69,50,29.97,29.66,7,4,16,0.00
2013-8-24,73.3,65.1,56.5,51.6,47.8,42.7,77,55,34,30.19,29.97,8,4,16,0.00
2013-8-25,82.1,68.4,52.6,57.1,52.9,48.4,93,61,34,30.20,30.04,6,3,15,0.00
2013-8-26,81.6,71.9,65.8,66.5,62.0,55.9,82,71,55,30.04,29.73,10,5,22,0.00
2013-8-27,78.0,71.2,64.4,71.0,67.1,63.5,97,87,67,29.73,29.67,7,3,13,0.20
2013-8-28,80.1,68.8,61.1,69.0,64.1,60.8,98,86,59,29.82,29.69,7,3,14,0.00
2013-8-29,67.2,63.7,61.3,65.1,61.9,58.0,99,93,88,29.91,29.79,8,5,17,0.00
2013-8-30,81.9,70.4,61.7,68.4,63.8,58.7,90,80,60,29.87,29.67,6,4,15,0.00
2013-8-31,80.6,74.1,68.2,73.8,70.7,67.0,96,89,77,29.68,29.63,7,4,14,0.00
2013-9-1,78.8,72.7,67.6,75.7,71.1,66.8,97,94,87,29.72,29.64,6,3,16,0.92
2013-9-2,81.1,74.4,69.5,76.7,72.1,68.1,98,92,79,29.72,29.55,7,3,16,0.26
2013-9-3,80.8,73.1,64.5,71.8,68.5,61.1,98,86,69,29.66,29.53,7,3,18,0.00
2013-9-4,79.7,68.6,57.8,61.4,57.8,54.8,95,70,45,29.78,29.65,7,4,17,0.00
2013-9-5,67.2,61.8,51.4,63.2,57.3,47.2,96,85,71,29.98,29.71,6,2,13,0.13
2013-9-6,68.4,57.6,45.7,49.7,43.6,39.9,90,62,37,30.07,29.96,5,2,14,0.00
2013-9-7,78.1,64.4,48.7,57.0,50.9,44.9,89,64,40,29.96,29.72,7,4,18,0.00
2013-9-8,74.5,65.1,50.9,62.2,52.4,39.3,85,65,37,29.95,29.59,10,4,22,0.00
2013-9-9,69.0,57.5,42.3,50.7,45.1,40.5,93,65,42,30.08,29.95,7,3,16,0.00
2013-9-10,75.7,67.1,56.8,69.9,62.2,50.4,93,84,77,30.02,29.88,10,4,20,0.00
2013-9-11,94.3,80.5,68.8,77.9,72.2,67.5,98,78,46,29.91,29.78,7,4,16,0.00
2013-9-12,86.9,76.3,67.4,75.4,70.8,66.5,96,83,62,29.82,29.52,9,4,21,0.44
2013-9-13,79.5,68.9,59.7,70.2,65.0,55.5,99,87,62,29.59,29.39,5,2,17,0.29
2013-9-14,67.7,60.3,51.3,55.5,53.1,49.1,94,77,63,29.91,29.60,5,3,11,0.00
2013-9-15,71.6,59.2,48.3,54.3,50.6,47.7,98,75,47,29.99,29.90,6,3,14,0.00
2013-9-16,66.3,58.3,49.9,57.8,50.5,39.0,90,75,60,30.08,29.87,7,3,20,0.05
2013-9-17,63.3,51.2,41.1,44.5,38.9,35.2,93,64,42,30.19,30.09,9,4,20,0.00
2013-9-18,73.0,57.4,41.7,50.3,45.1,40.8,96,68,35,0.00,-26.25,5,2,12,0.00
2013-9-19,78.9,62.7,48.1,55.4,51.6,45.7,92,70,40,0.00,-26.25,5,2,16,0.00
2013-9-20,78.4,62.8,49.7,59.0,54.7,49.0,97,77,44,0.00,-26.25,6,2,10,0.00
2013-9-21,75.4,66.0,55.1,66.2,60.6,54.3,98,84,60,0.00,-26.25,9,4,22,0.00
2013-9-22,70.8,64.8,52.5,67.4,57.6,46.6,96,78,51,0.00,-26.25,9,4,23,0.28
2013-9-23,62.6,53.5,44.8,46.6,42.3,39.4,85,66,50,0.00,-26.25,7,4,17,0.00
2013-9-24,67.0,53.2,39.3,45.7,42.0,37.6,94,68,41,0.00,-26.25,6,3,16,0.00
2013-9-25,63.8,54.3,44.4,50.0,46.7,43.2,95,76,57,0.00,-26.25,7,3,17,0.00
2013-9-26,62.7,57.5,52.4,51.1,48.8,45.8,89,73,58,0.00,-26.25,6,3,14,0.00
2013-9-27,64.6,57.8,49.8,53.7,50.6,47.2,93,77,60,0.00,-26.25,7,3,14,0.00
2013-9-28,70.6,57.0,46.2,57.9,51.4,45.6,97,83,58,0.00,-26.25,7,2,13,0.00
2013-9-29,64.1,54.0,44.0,57.3,48.5,43.7,99,84,48,0.00,-26.25,7,2,13,0.00
2013-9-30,65.3,56.1,46.9,53.8,50.7,45.8,98,83,57,0.00,-26.25,7,2,12,0.00
2013-10-1,76.7,60.0,45.9,56.0,50.8,45.4,98,75,39,0.00,-26.25,6,2,12,0.00
2013-10-2,80.1,66.4,53.7,62.2,57.4,52.3,95,75,51,0.00,-26.25,9,3,20,0.00
2013-10-3,77.5,64.4,53.0,57.1,51.4,45.5,95,67,33,0.00,-26.25,5,2,11,0.00
2013-10-4,65.1,58.5,50.3,61.6,54.4,48.1,96,86,67,0.00,-26.25,3,1,7,0.29
2013-10-5,69.3,61.3,56.3,61.8,57.0,54.4,98,86,65,0.00,-26.25,5,2,9,0.00
2013-10-6,60.3,57.3,55.0,58.2,55.9,54.2,98,94,86,0.00,-26.25,7,4,15,0.38
2013-10-7,77.1,66.9,57.3,71.7,64.3,55.2,99,91,78,0.00,-26.25,10,4,26,0.00
2013-10-8,66.0,58.5,51.2,55.0,44.4,38.0,79,61,39,0.00,-26.25,7,4,17,0.00
2013-10-9,59.7,52.2,44.8,47.2,43.9,39.6,96,74,53,0.00,-26.25,10,4,20,0.00
2013-10-10,60.2,53.0,44.4,53.9,49.7,43.5,97,88,75,0.00,-26.25,8,3,15,0.00
2013-10-11,66.8,56.9,50.9,57.1,51.4,47.9,97,82,56,0.00,-26.25,6,3,13,0.00
2013-10-12,59.6,55.9,52.5,56.8,52.8,49.2,96,89,82,0.00,-26.25,9,6,20,0.00
2013-10-13,60.0,52.2,41.4,50.2,46.3,40.5,96,81,61,30.26,-26.25,7,4,17,0.00
2013-10-14,65.5,49.8,35.8,49.8,43.3,35.5,98,81,38,30.26,30.09,4,1,8,0.00
2013-10-15,66.3,56.0,47.2,53.9,50.3,46.3,96,82,59,30.12,30.04,6,2,12,0.00
2013-10-16,61.3,54.7,47.2,55.9,52.8,46.4,99,93,80,30.04,29.76,5,2,10,0.00
2013-10-17,72.3,61.6,53.5,63.3,57.8,52.9,99,88,66,29.76,29.58,6,3,14,0.05
2013-10-18,67.3,60.6,45.3,61.6,51.5,42.0,97,74,46,29.77,29.46,8,4,22,0.00
2013-10-19,66.8,54.5,41.8,47.3,43.5,38.7,91,68,41,29.83,29.62,6,2,13,0.00
2013-10-20,62.6,53.3,39.6,50.5,40.4,31.4,95,65,34,29.87,29.55,9,4,23,0.00
2013-10-21,67.5,52.4,38.5,44.5,39.9,34.9,88,65,39,29.96,29.86,6,3,14,0.00
2013-10-22,68.5,54.7,42.2,53.5,45.9,37.6,96,74,50,29.86,29.55,8,3,17,0.00
2013-10-23,51.7,45.4,36.8,38.5,35.2,32.8,91,68,50,29.66,29.45,4,1,8,0.00
2013-10-24,53.0,45.0,36.6,36.3,30.2,23.2,83,58,34,29.75,29.49,8,4,21,0.00
2013-10-25,50.4,40.4,31.8,35.7,28.7,24.2,86,64,42,30.02,29.75,7,3,17,0.00
2013-10-26,56.2,43.7,29.5,37.4,30.6,26.0,93,63,32,30.03,29.75,10,4,27,0.00
2013-10-27,54.7,47.5,37.0,40.9,34.5,28.1,89,62,41,29.93,29.69,7,4,19,0.05
2013-10-28,58.2,45.0,32.9,35.2,31.3,23.6,89,61,39,30.21,29.93,11,4,23,0.00
2013-10-29,49.9,38.6,30.2,33.6,27.3,22.3,94,65,35,30.29,30.21,5,2,12,0.00
2013-10-30,54.0,40.5,31.7,44.1,37.0,30.3,96,87,63,30.24,30.05,4,1,11,0.05
2013-10-31,62.9,50.6,34.6,60.1,48.5,34.1,98,92,80,30.10,29.67,8,3,20,0.05
2013-11-1,71.5,64.6,59.4,63.6,58.7,54.1,95,81,65,29.65,29.31,14,8,34,0.00
2013-11-2,67.7,56.2,47.0,53.8,46.0,40.2,97,71,39,29.57,29.42,5,2,16,0.00
2013-11-3,52.0,41.7,32.7,46.9,31.5,15.7,95,69,40,30.27,29.57,7,4,16,0.05
2013-11-4,41.7,33.2,26.4,23.3,19.7,15.3,85,58,35,30.34,-26.25,8,3,18,0.00
2013-11-5,51.6,38.0,25.6,34.8,28.1,21.8,87,69,43,30.57,-26.25,4,2,10,0.00
2013-11-6,61.5,50.8,38.5,50.9,42.2,32.9,90,73,48,30.38,29.91,8,4,20,0.00
2013-11-7,67.3,54.2,37.0,59.6,50.6,33.1,94,88,69,29.91,29.53,10,5,22,0.36
2013-11-8,50.0,39.7,31.2,34.9,27.6,21.1,88,62,46,29.94,29.67,10,5,25,0.00
2013-11-9,44.9,38.4,29.8,29.0,24.2,21.4,76,57,39,30.06,29.90,7,4,17,0.00
2013-11-10,56.6,46.6,41.0,44.3,36.6,29.5,91,68,50,29.89,29.59,8,4,21,0.05
2013-11-11,51.8,45.4,38.7,34.0,28.5,24.3,63,52,34,29.95,29.70,9,5,23,0.00
2013-11-12,49.8,35.6,26.9,39.1,25.0,15.6,94,66,52,30.06,29.75,9,5,21,0.15
2013-11-13,36.7,29.0,23.5,17.0,14.5,10.9,72,55,38,31.58,30.05,8,4,16,0.00
2013-11-14,50.7,39.7,28.0,23.7,20.4,15.8,61,47,32,30.04,29.89,9,5,21,0.00
2013-11-15,62.4,47.1,32.9,34.5,23.2,14.8,68,40,20,30.05,29.95,8,4,17,0.00
2013-11-16,60.7,46.4,37.3,35.3,29.8,21.9,85,55,22,30.18,30.04,5,2,11,0.00
2013-11-17,60.8,48.7,34.4,57.8,45.4,32.7,98,88,66,30.18,29.70,4,2,11,0.00
2013-11-18,66.5,59.7,48.1,62.3,49.1,32.5,99,70,42,29.69,29.36,10,6,25,0.34
2013-11-19,47.7,40.0,31.4,33.0,22.2,16.4,57,48,38,30.13,29.50,12,7,29,0.00
2013-11-20,41.2,32.5,26.1,17.3,14.2,10.7,63,47,29,30.47,30.13,7,4,16,0.00
2013-11-21,48.2,36.0,22.9,31.1,20.7,14.2,73,55,33,0.00,-26.25,6,3,13,0.00
2013-11-22,46.9,44.4,40.9,46.2,41.7,31.8,97,90,69,0.00,-26.25,4,1,8,0.13
2013-11-23,47.8,41.0,29.8,46.7,27.0,14.5,97,59,34,0.00,-26.25,11,7,25,0.00
2013-11-24,29.5,24.1,20.0,17.3,3.8,-5.1,71,42,25,0.00,-26.25,14,10,34,0.00
2013-11-25,33.3,25.0,16.2,17.4,2.9,-6.3,57,38,20,0.00,-26.25,8,6,20,0.00
2013-11-26,41.3,37.0,30.8,39.9,23.8,17.3,95,60,43,0.00,-26.25,7,4,16,0.00
2013-11-27,62.2,52.0,37.6,61.1,50.9,33.5,98,96,85,31.58,-26.25,10,6,32,1.69
2013-11-28,37.6,31.0,23.8,33.4,16.8,7.9,85,56,37,30.29,-26.25,12,8,29,0.00
2013-11-29,33.8,27.1,21.3,18.3,11.3,4.3,77,52,35,30.40,30.29,7,4,16,0.00
2013-11-30,34.6,26.1,17.8,23.2,15.0,7.4,72,62,53,0.00,-26.25,5,2,10,0.00
2013-12-1,44.6,37.7,31.6,42.4,34.9,23.9,99,89,72,30.10,-26.25,4,2,9,0.13
2013-12-2,40.2,37.5,36.0,39.4,37.1,35.9,99,98,96,29.87,29.78,4,1,7,0.00
2013-12-3,48.4,38.6,33.2,38.9,34.8,30.5,99,87,58,29.80,29.68,6,3,12,0.00
2013-12-4,44.9,35.3,29.4,31.4,28.8,26.5,95,78,52,30.06,29.80,6,2,11,0.00
2013-12-5,56.3,45.1,31.2,55.2,41.9,28.6,98,88,76,30.06,29.77,7,2,17,0.00
2013-12-6,56.2,49.1,34.8,55.4,45.8,33.6,98,88,71,29.98,29.70,7,4,15,0.42
2013-12-7,40.4,34.0,26.5,34.6,27.8,19.1,97,79,56,30.31,29.93,8,3,18,0.13
2013-12-8,30.2,28.2,21.1,21.2,16.3,12.9,80,61,49,30.43,30.31,6,2,10,0.00
2013-12-9,41.1,34.0,26.6,40.8,32.3,16.3,99,94,56,30.35,29.74,6,4,12,0.26
2013-12-10,34.7,30.8,23.7,34.2,29.6,19.0,98,95,79,29.86,29.65,5,2,11,0.00
2013-12-11,29.6,25.1,21.1,20.8,19.0,17.3,86,77,67,30.06,29.86,9,5,22,0.00
2013-12-12,24.9,20.9,14.8,18.1,8.3,1.3,81,59,37,30.12,29.99,9,4,21,0.00
2013-12-13,29.2,21.8,15.1,16.4,11.1,4.6,75,63,49,0.00,-26.25,11,6,22,0.00
2013-12-14,30.0,17.0,10.2,29.3,8.0,-4.8,97,68,48,0.00,-26.25,10,5,24,0.00
2013-12-15,36.8,28.6,22.0,36.6,26.9,20.3,99,93,80,29.63,-26.25,16,4,32,0.73
2013-12-16,28.8,24.3,15.6,21.8,12.9,6.5,87,63,41,29.80,-26.25,9,2,21,0.00
2013-12-17,21.2,15.1,6.1,19.9,10.4,0.6,94,81,62,31.58,-26.25,8,3,18,0.00
2013-12-18,35.3,25.7,16.5,21.9,19.2,14.7,94,77,54,31.58,-26.25,8,5,20,0.00
2013-12-19,43.7,33.8,25.1,27.9,23.7,19.7,80,67,47,29.97,-26.25,11,5,24,0.08
2013-12-20,53.2,42.5,32.1,38.8,32.5,26.0,79,68,52,29.97,29.76,8,3,16,0.00
2013-12-21,58.2,49.6,42.9,48.7,44.0,34.9,92,81,70,29.82,29.72,9,5,17,0.00
2013-12-22,54.2,43.4,35.4,52.8,42.5,35.3,99,96,88,29.88,29.65,12,4,24,0.00
2013-12-23,37.6,34.7,32.7,37.5,34.6,32.7,100,100,99,29.94,29.83,6,2,14,0.77
2013-12-24,37.7,32.6,27.1,37.1,22.3,16.2,98,66,48,30.05,29.88,7,5,18,0.00
2013-12-25,26.9,19.2,14.4,16.9,5.6,1.1,68,55,42,30.26,30.05,10,4,20,0.00
2013-12-26,34.6,26.9,16.4,32.2,22.3,7.8,96,83,63,30.06,-26.25,6,2,13,0.00
2013-12-27,34.4,28.3,23.3,22.8,20.5,17.7,89,73,55,30.11,30.05,9,4,17,0.00
2013-12-28,47.4,34.9,26.2,29.4,25.2,20.6,82,68,45,30.08,29.84,10,4,19,0.00
2013-12-29,43.4,37.9,30.4,41.6,33.3,24.0,98,83,67,29.90,29.25,12,4,27,1.31
2013-12-30,42.3,33.2,19.5,36.0,24.2,8.9,96,71,39,30.02,29.38,11,5,22,0.00
2013-12-31,25.4,19.4,13.6,14.8,5.8,-4.1,71,55,43,30.04,29.87,7,4,14,0.00
2014-1-1,28.1,21.8,15.0,11.9,7.9,5.4,69,54,42,30.24,30.05,8,4,18,0.00
2014-1-2,22.7,13.5,1.4,16.6,10.8,-1.3,92,89,58,31.58,29.86,12,7,29,0.00